Location: Fort Worth, Tx
(32.7431°N, 97.3695°W)
Time: 17:59:20
(UTC-04:00)

Transit 4A - Pass Details

Date: 03 March 2024
Orbit: 871 x 972 km, 66.8° (Epoch: 21 April)

Event Time Altitude Azimuth Distance (km) Brightness Sun altitude
Rises 23:49:28 0° 185° (S) 3,619 - -52.9°
Reaches altitude 10° 23:52:09 10° 179° (S) 2,664 - -53.3°
Maximum altitude 23:57:57 43° 110° (ESE) 1,292 - -54.3°
Drops below altitude 10° 00:03:38 10° 41° (NE) 2,614 - -55.1°
Sets 00:06:14 0° 34° (NE) 3,543 - -55.5°
